This is the latest recevied weather packets stored in our database for station/object NK0Z-13. If no packets are shown the sender has not sent any weather packets the latest 10 day(s).
| Time | Temp. | Humidity | Pressure | Rain* | Wind** | Luminosity | Snow |
|---|---|---|---|---|---|---|---|
| 1777666786 | 18.89° C | 37% | 1019.5 hPa | 0 mm | - | 701 W/m² | - |
| 1777666186 | 18.89° C | 37% | 1019.8 hPa | 0 mm | - | 458 W/m² | - |
| 1777665587 | 17.78° C | 38% | 1019.9 hPa | 0 mm | - | 280 W/m² | - |
| 1777664985 | 17.78° C | 36% | 1020 hPa | 0 mm | - | 128 W/m² | - |
| 1777664383 | 17.78° C | 34% | 1020.1 hPa | 0 mm | - | 261 W/m² | - |
| 1777663779 | 17.78° C | 35% | 1020.2 hPa | 0 mm | - | 148 W/m² | - |
| 1777663178 | 17.78° C | 33% | 1020.2 hPa | 0 mm | - | 105 W/m² | - |
| 1777662578 | 17.78° C | 33% | 1020.1 hPa | 0 mm | - | 141 W/m² | - |
| 1777661975 | 18.33° C | 33% | 1020.1 hPa | 0 mm | - | 167 W/m² | - |
| 1777661373 | 19.44° C | 32% | 1020.3 hPa | 0 mm | - | 351 W/m² | - |
| 1777660770 | 19.44° C | 32% | 1020.7 hPa | 0 mm | - | 394 W/m² | - |
| 1777660170 | 18.89° C | 32% | 1020.5 hPa | 0 mm | - | 400 W/m² | - |
| 1777659569 | 18.89° C | 30% | 1020.7 hPa | 0 mm | - | 335 W/m² | - |
| 1777658969 | 18.33° C | 32% | 1020.6 hPa | 0 mm | - | 306 W/m² | - |
| 1777658369 | 19.44° C | 31% | 1020.6 hPa | 0 mm | - | 364 W/m² | - |
| 1777657768 | 18.89° C | 31% | 1020.8 hPa | 0 mm | - | 594 W/m² | - |
| 1777657164 | 18.33° C | 30% | 1021 hPa | 0 mm | - | 969 W/m² | - |
| 1777656562 | 18.89° C | 30% | 1021.2 hPa | 0 mm | - | 829 W/m² | - |
| 1777655960 | 17.78° C | 29% | 1021.3 hPa | 0 mm | - | 772 W/m² | - |
| 1777655358 | 17.78° C | 30% | 1021.5 hPa | 0 mm | - | 731 W/m² | - |
| 1777654753 | 17.78° C | 34% | 1021.3 hPa | 0 mm | - | 723 W/m² | - |
| 1777654154 | 17.78° C | 32% | 1021.5 hPa | 0 mm | - | 702 W/m² | - |
| 1777653553 | 17.78° C | 38% | 1021.4 hPa | 0 mm | - | 693 W/m² | - |
| 1777652952 | 17.78° C | 37% | 1021.5 hPa | 0 mm | - | 676 W/m² | - |
| 1777652351 | 16.67° C | 37% | 1021.6 hPa | 0 mm | - | 660 W/m² | - |
* Rain latest hour (hover to see other rain measurements)
** Current wind speed in m/s (hover to see current wind gust speed)